User: anonymous   Login
Location: Unspecified
(0.0000°N, 0.0000°E)
Time: 00:11:16
(UTC+00:00)
Language:

STARLINK-32720 - Orbit

View from above orbital plane
View from above orbital plane
View from above satellite
View from above satellite

Ground track
Ground track

The orbit is defined by the following mean orbital elements,

1 62451U          26145.55072411 +.00000000 +00000-0 +66419-3 0 00003
2 62451  53.1593 338.4711 0001141  80.0095 280.1035 15.30203067    08
Epoch (UTC): 25 May 2026 13:13:02
Eccentricity: 0.0001141
inclination: 53.1593°
perigee height: 474 km
apogee height: 476 km
right ascension of ascending node: 338.4711°
argument of perigee: 80.0095°
revolutions per day: 15.30203067
mean anomaly at epoch: 280.1035°

The dashed part of the orbit path shows where the satellite is in the earth's shadow,  

DLR